Location: Tyumen
(57.1527°N, 65.5323°E)
Time: 08:37:56
(UTC+05:00)

ISS - Pass Details

Date: 01 December 2024
Orbit: 411 x 421 km, 51.6° (Epoch: 03 December)

Event Time Altitude Azimuth Distance (km) Brightness Sun altitude
Rises 17:49:42 0° 269° (W) 2,375 1.5 -13.4°
Reaches altitude 10° 17:52:20 10° 248° (WSW) 1,509 0.5 -13.7°
Maximum altitude 17:54:33 16° 207° (SSW) 1,173 -0.9 -14.0°
Drops below altitude 10° 17:56:46 10° 166° (SSE) 1,504 -0.9 -14.3°
Sets 17:59:23 0° 145° (SE) 2,365 -0.1 -14.7°
